TIME,�Ζ��t�@���q�[�^�[�[-���� [L],�t���O,�Ζ��t�@���q�[�^�[-���� [MJ/h],�t���O
2005/3/1 0:00,0,0,0,0
2005/3/1 0:15,0,0,0,0
2005/3/1 0:30,0,0,0,0
2005/3/1 0:45,0,0,0,0
2005/3/1 1:00,0,0,0,0
2005/3/1 1:15,0,0,0,0
2005/3/1 1:30,0,0,0,0
2005/3/1 1:45,0,0,0,0
2005/3/1 2:00,0,0,0,0
2005/3/1 2:15,0,0,0,0
2005/3/1 2:30,0,0,0,0
2005/3/1 2:45,0,0,0,0
2005/3/1 3:00,0,0,0,0
2005/3/1 3:15,0,0,0,0
2005/3/1 3:30,0,0,0,0
2005/3/1 3:45,0,0,0,0
2005/3/1 4:00,0,0,0,0
2005/3/1 4:15,0,0,0,0
2005/3/1 4:30,0,0,0,0
2005/3/1 4:45,0,0,0,0
2005/3/1 5:00,0,0,0,0
2005/3/1 5:15,0,0,0,0
2005/3/1 5:30,0.000803379,0,0.117936,0
2005/3/1 5:45,0.073613297,0,10.806432,0
2005/3/1 6:00,0.073864087,0,10.843248,0
2005/3/1 6:15,0.073864087,0,10.843248,0
2005/3/1 6:30,0.073868338,0,10.843872,0
2005/3/1 6:45,0.073864087,0,10.843248,0
2005/3/1 7:00,0.073868338,0,10.843872,0
2005/3/1 7:15,0.073868338,0,10.843872,0
2005/3/1 7:30,0.073868338,0,10.843872,0
2005/3/1 7:45,0.073868338,0,10.843872,0
2005/3/1 8:00,0.073864087,0,10.843248,0
2005/3/1 8:15,0.051862561,0,7.613424,0
2005/3/1 8:30,0,0,0,0
2005/3/1 8:45,0,0,0,0
2005/3/1 9:00,0,0,0,0
2005/3/1 9:15,0,0,0,0
2005/3/1 9:30,0,0,0,0
2005/3/1 9:45,0,0,0,0
2005/3/1 10:00,0.027106594,0,3.979248,0
2005/3/1 10:15,0.073859837,0,10.842624,0
2005/3/1 10:30,0.073864087,0,10.843248,0
2005/3/1 10:45,0.073868338,0,10.843872,0
2005/3/1 11:00,0.05004752,0,7.346976,0
2005/3/1 11:15,0.006937112,0,1.018368,0
2005/3/1 11:30,0.073855586,0,10.842,0
2005/3/1 11:45,0.073864087,0,10.843248,0
2005/3/1 12:00,0.073864087,0,10.843248,0
2005/3/1 12:15,0.073868338,0,10.843872,0
2005/3/1 12:30,0.073868338,0,10.843872,0
2005/3/1 12:45,0.073864087,0,10.843248,0
2005/3/1 13:00,0.073868338,0,10.843872,0
2005/3/1 13:15,0.073868338,0,10.843872,0
2005/3/1 13:30,0.073868338,0,10.843872,0
2005/3/1 13:45,0.073868338,0,10.843872,0
2005/3/1 14:00,0.073868338,0,10.843872,0
2005/3/1 14:15,0.073868338,0,10.843872,0
2005/3/1 14:30,0.071398692,0,10.481328,0
2005/3/1 14:45,0.073868338,0,10.843872,0
2005/3/1 15:00,0.073868338,0,10.843872,0
2005/3/1 15:15,0.029542234,0,4.3368,0
2005/3/1 15:30,0,0,0,0
2005/3/1 15:45,0,0,0,0
2005/3/1 16:00,0,0,0,0
2005/3/1 16:15,0,0,0,0
2005/3/1 16:30,0.026311717,0,3.86256,0
2005/3/1 16:45,0.073859837,0,10.842624,0
2005/3/1 17:00,0.073864087,0,10.843248,0
2005/3/1 17:15,0.073868338,0,10.843872,0
2005/3/1 17:30,0.073868338,0,10.843872,0
2005/3/1 17:45,0.073868338,0,10.843872,0
2005/3/1 18:00,0.073868338,0,10.843872,0
2005/3/1 18:15,0.073864087,0,10.843248,0
2005/3/1 18:30,0.073868338,0,10.843872,0
2005/3/1 18:45,0.073868338,0,10.843872,0
2005/3/1 19:00,0.073868338,0,10.843872,0
2005/3/1 19:15,0.073864087,0,10.843248,0
2005/3/1 19:30,0.073864087,0,10.843248,0
2005/3/1 19:45,0.073864087,0,10.843248,0
2005/3/1 20:00,0.073864087,0,10.843248,0
2005/3/1 20:15,0.073736567,0,10.824528,0
2005/3/1 20:30,0.073137221,0,10.736544,0
2005/3/1 20:45,0.073783324,0,10.831392,0
2005/3/1 21:00,0.073753569,0,10.827024,0
2005/3/1 21:15,0.073409264,0,10.77648,0
2005/3/1 21:30,0.073868338,0,10.843872,0
2005/3/1 21:45,0.073800327,0,10.833888,0
2005/3/1 22:00,0.073868338,0,10.843872,0
2005/3/1 22:15,0.073617548,0,10.807056,0
2005/3/1 22:30,0.073864087,0,10.843248,0
2005/3/1 22:45,0.036279564,0,5.32584,0
2005/3/1 23:00,0,0,0,0
2005/3/1 23:15,0,0,0,0
2005/3/1 23:30,0,0,0,0
2005/3/1 23:45,0,0,0,0
2005/3/2 0:00,0,0,0,0
2005/3/2 0:15,0,0,0,0
2005/3/2 0:30,0,0,0,0
2005/3/2 0:45,0,0,0,0
2005/3/2 1:00,0,0,0,0
2005/3/2 1:15,0,0,0,0
2005/3/2 1:30,0,0,0,0
2005/3/2 1:45,0,0,0,0
2005/3/2 2:00,0,0,0,0
2005/3/2 2:15,0,0,0,0
2005/3/2 2:30,0,0,0,0
2005/3/2 2:45,0,0,0,0
2005/3/2 3:00,0,0,0,0
2005/3/2 3:15,0,0,0,0
2005/3/2 3:30,0,0,0,0
2005/3/2 3:45,0,0,0,0
2005/3/2 4:00,0,0,0,0
2005/3/2 4:15,0.014622343,0,2.14656,0
2005/3/2 4:30,0.073859837,0,10.842624,0
2005/3/2 4:45,0.073864087,0,10.843248,0
2005/3/2 5:00,0.073864087,0,10.843248,0
2005/3/2 5:15,0.073868338,0,10.843872,0
2005/3/2 5:30,0.073864087,0,10.843248,0
2005/3/2 5:45,0.073868338,0,10.843872,0
2005/3/2 6:00,0.070144741,0,10.297248,0
2005/3/2 6:15,0.072737657,0,10.677888,0
2005/3/2 6:30,0.067781362,0,9.950304,0
2005/3/2 6:45,0.073349755,0,10.767744,0
2005/3/2 7:00,0.072486866,0,10.641072,0
2005/3/2 7:15,0.073868338,0,10.843872,0
2005/3/2 7:30,0.073868338,0,10.843872,0
2005/3/2 7:45,0.073868338,0,10.843872,0
2005/3/2 8:00,0.073868338,0,10.843872,0
2005/3/2 8:15,0.073868338,0,10.843872,0
2005/3/2 8:30,0.063658202,0,9.345024,0
2005/3/2 8:45,0,0,0,0
2005/3/2 9:00,0,0,0,0
2005/3/2 9:15,0,0,0,0
2005/3/2 9:30,0,0,0,0
2005/3/2 9:45,0,0,0,0
2005/3/2 10:00,0,0,0,0
2005/3/2 10:15,0,0,0,0
2005/3/2 10:30,0,0,0,0
2005/3/2 10:45,0,0,0,0
2005/3/2 11:00,0,0,0,0
2005/3/2 11:15,0,0,0,0
2005/3/2 11:30,0,0,0,0
2005/3/2 11:45,0,0,0,0
2005/3/2 12:00,0,0,0,0
2005/3/2 12:15,0,0,0,0
2005/3/2 12:30,0,0,0,0
2005/3/2 12:45,0,0,0,0
2005/3/2 13:00,0,0,0,0
2005/3/2 13:15,0,0,0,0
2005/3/2 13:30,0,0,0,0
2005/3/2 13:45,0,0,0,0
2005/3/2 14:00,0,0,0,0
2005/3/2 14:15,0,0,0,0
2005/3/2 14:30,0,0,0,0
2005/3/2 14:45,0,0,0,0
2005/3/2 15:00,0.036309319,0,5.330208,0
2005/3/2 15:15,0.073855586,0,10.842,0
2005/3/2 15:30,0.073864087,0,10.843248,0
2005/3/2 15:45,0.073864087,0,10.843248,0
2005/3/2 16:00,0.073864087,0,10.843248,0
2005/3/2 16:15,0.073864087,0,10.843248,0
2005/3/2 16:30,0.073868338,0,10.843872,0
2005/3/2 16:45,0.029057657,0,4.265664,0
2005/3/2 17:00,0,0,0,0
2005/3/2 17:15,0,0,0,0
2005/3/2 17:30,0,0,0,0
2005/3/2 17:45,0,0,0,0
2005/3/2 18:00,0.058123815,0,8.532576,0
2005/3/2 18:15,0.073859837,0,10.842624,0
2005/3/2 18:30,0.073864087,0,10.843248,0
2005/3/2 18:45,0.073864087,0,10.843248,0
2005/3/2 19:00,0.073868338,0,10.843872,0
2005/3/2 19:15,0.073864087,0,10.843248,0
2005/3/2 19:30,0.073868338,0,10.843872,0
2005/3/2 19:45,0.073868338,0,10.843872,0
2005/3/2 20:00,0.073868338,0,10.843872,0
2005/3/2 20:15,0.073868338,0,10.843872,0
2005/3/2 20:30,0.073868338,0,10.843872,0
2005/3/2 20:45,0.073868338,0,10.843872,0
2005/3/2 21:00,0.073868338,0,10.843872,0
2005/3/2 21:15,0.073868338,0,10.843872,0
2005/3/2 21:30,0.073868338,0,10.843872,0
2005/3/2 21:45,0.073868338,0,10.843872,0
2005/3/2 22:00,0.073324251,0,10.764,0
2005/3/2 22:15,0.073868338,0,10.843872,0
2005/3/2 22:30,0.073672807,0,10.815168,0
2005/3/2 22:45,0.073868338,0,10.843872,0
2005/3/2 23:00,0.073868338,0,10.843872,0
2005/3/2 23:15,0.024624196,0,3.614832,0
2005/3/2 23:30,0,0,0,0
2005/3/2 23:45,0,0,0,0
2005/3/3 0:00,0,0,0,0
2005/3/3 0:15,0,0,0,0
2005/3/3 0:30,0,0,0,0
2005/3/3 0:45,0,0,0,0
2005/3/3 1:00,0,0,0,0
2005/3/3 1:15,0,0,0,0
2005/3/3 1:30,0,0,0,0
2005/3/3 1:45,0,0,0,0
2005/3/3 2:00,0,0,0,0
2005/3/3 2:15,0,0,0,0
2005/3/3 2:30,0,0,0,0
2005/3/3 2:45,0,0,0,0
2005/3/3 3:00,0,0,0,0
2005/3/3 3:15,0,0,0,0
2005/3/3 3:30,0,0,0,0
2005/3/3 3:45,0,0,0,0
2005/3/3 4:00,0,0,0,0
2005/3/3 4:15,0,0,0,0
2005/3/3 4:30,0,0,0,0
2005/3/3 4:45,0,0,0,0
2005/3/3 5:00,0,0,0,0
2005/3/3 5:15,0,0,0,0
2005/3/3 5:30,0.008939183,0,1.312272,0
2005/3/3 5:45,0.073855586,0,10.842,0
2005/3/3 6:00,0.073864087,0,10.843248,0
2005/3/3 6:15,0.073864087,0,10.843248,0
2005/3/3 6:30,0.073864087,0,10.843248,0
2005/3/3 6:45,0.073868338,0,10.843872,0
2005/3/3 7:00,0.073864087,0,10.843248,0
2005/3/3 7:15,0.073868338,0,10.843872,0
2005/3/3 7:30,0.073864087,0,10.843248,0
2005/3/3 7:45,0.073868338,0,10.843872,0
2005/3/3 8:00,0.073864087,0,10.843248,0
2005/3/3 8:15,0,0,0,0
2005/3/3 8:30,0,0,0,0
2005/3/3 8:45,0,0,0,0
2005/3/3 9:00,0,0,0,0
2005/3/3 9:15,0,0,0,0
2005/3/3 9:30,0,0,0,0
2005/3/3 9:45,0,0,0,0
2005/3/3 10:00,0,0,0,0
2005/3/3 10:15,0,0,0,0
2005/3/3 10:30,0,0,0,0
2005/3/3 10:45,0,0,0,0
2005/3/3 11:00,0,0,0,0
2005/3/3 11:15,0,0,0,0
2005/3/3 11:30,0,0,0,0
2005/3/3 11:45,0,0,0,0
2005/3/3 12:00,0.030655913,0,4.500288,0
2005/3/3 12:15,0.073859837,0,10.842624,0
2005/3/3 12:30,0.073859837,0,10.842624,0
2005/3/3 12:45,0.073864087,0,10.843248,0
2005/3/3 13:00,0.073052207,0,10.724064,0
2005/3/3 13:15,0.078671608,0,11.548992,0
2005/3/3 13:30,0,0,0,0
2005/3/3 13:45,0.021499946,0,3.156192,0
2005/3/3 14:00,0.073859837,0,10.842624,0
2005/3/3 14:15,0.049239891,0,7.228416,0
2005/3/3 14:30,0.073859837,0,10.842624,0
2005/3/3 14:45,0.073859837,0,10.842624,0
2005/3/3 15:00,0.073868338,0,10.843872,0
2005/3/3 15:15,0.073868338,0,10.843872,0
2005/3/3 15:30,0.073868338,0,10.843872,0
2005/3/3 15:45,0.073868338,0,10.843872,0
2005/3/3 16:00,0.073872589,0,10.844496,0
2005/3/3 16:15,0.073868338,0,10.843872,0
2005/3/3 16:30,0.073715313,0,10.821408,0
2005/3/3 16:45,0.03600327,0,5.28528,0
2005/3/3 17:00,0,0,0,0
2005/3/3 17:15,0.015553243,0,2.283216,0
2005/3/3 17:30,0.073864087,0,10.843248,0
2005/3/3 17:45,0.073864087,0,10.843248,0
2005/3/3 18:00,0.073868338,0,10.843872,0
2005/3/3 18:15,0.073868338,0,10.843872,0
2005/3/3 18:30,0.073864087,0,10.843248,0
2005/3/3 18:45,0.073864087,0,10.843248,0
2005/3/3 19:00,0.0714497,0,10.488816,0
2005/3/3 19:15,0.07319248,0,10.744656,0
2005/3/3 19:30,0.070242507,0,10.3116,0
2005/3/3 19:45,0.072584632,0,10.655424,0
2005/3/3 20:00,0.070922616,0,10.41144,0
2005/3/3 20:15,0.071517711,0,10.4988,0
2005/3/3 20:30,0.070540054,0,10.35528,0
2005/3/3 20:45,0.071487956,0,10.494432,0
2005/3/3 21:00,0.068631499,0,10.075104,0
2005/3/3 21:15,0.07119891,0,10.452,0
2005/3/3 21:30,0.066242616,0,9.724416,0
2005/3/3 21:45,0.073868338,0,10.843872,0
2005/3/3 22:00,0.072797166,0,10.686624,0
2005/3/3 22:15,0.073868338,0,10.843872,0
2005/3/3 22:30,0.071402943,0,10.481952,0
2005/3/3 22:45,0.073753569,0,10.827024,0
2005/3/3 23:00,0.021546703,0,3.163056,0
2005/3/3 23:15,0,0,0,0
2005/3/3 23:30,0,0,0,0
2005/3/3 23:45,0,0,0,0
2005/3/4 0:00,0,0,0,0
2005/3/4 0:15,0,0,0,0
2005/3/4 0:30,0,0,0,0
2005/3/4 0:45,0,0,0,0
2005/3/4 1:00,0,0,0,0
2005/3/4 1:15,0,0,0,0
2005/3/4 1:30,0,0,0,0
2005/3/4 1:45,0,0,0,0
2005/3/4 2:00,0,0,0,0
2005/3/4 2:15,0,0,0,0
2005/3/4 2:30,0,0,0,0
2005/3/4 2:45,0,0,0,0
2005/3/4 3:00,0,0,0,0
2005/3/4 3:15,0,0,0,0
2005/3/4 3:30,0,0,0,0
2005/3/4 3:45,0,0,0,0
2005/3/4 4:00,0,0,0,0
2005/3/4 4:15,0,0,0,0
2005/3/4 4:30,0,0,0,0
2005/3/4 4:45,0,0,0,0
2005/3/4 5:00,0,0,0,0
2005/3/4 5:15,0,0,0,0
2005/3/4 5:30,0.022957929,0,3.370224,0
2005/3/4 5:45,0.073859837,0,10.842624,0
2005/3/4 6:00,0.073864087,0,10.843248,0
2005/3/4 6:15,0.073864087,0,10.843248,0
2005/3/4 6:30,0.073864087,0,10.843248,0
2005/3/4 6:45,0.073868338,0,10.843872,0
2005/3/4 7:00,0.073868338,0,10.843872,0
2005/3/4 7:15,0.073864087,0,10.843248,0
2005/3/4 7:30,0.073868338,0,10.843872,0
2005/3/4 7:45,0.073868338,0,10.843872,0
2005/3/4 8:00,0.055649918,0,8.169408,0
2005/3/4 8:15,0,0,0,0
2005/3/4 8:30,0,0,0,0
2005/3/4 8:45,0,0,0,0
2005/3/4 9:00,0,0,0,0
2005/3/4 9:15,0,0,0,0
2005/3/4 9:30,0,0,0,0
2005/3/4 9:45,0,0,0,0
2005/3/4 10:00,0,0,0,0
2005/3/4 10:15,0,0,0,0
2005/3/4 10:30,0,0,0,0
2005/3/4 10:45,0,0,0,0
2005/3/4 11:00,0,0,0,0
2005/3/4 11:15,0,0,0,0
2005/3/4 11:30,0,0,0,0
2005/3/4 11:45,0,0,0,0
2005/3/4 12:00,0,0,0,0
2005/3/4 12:15,0,0,0,0
2005/3/4 12:30,0.053214278,0,7.811856,0
2005/3/4 12:45,0.073859837,0,10.842624,0
2005/3/4 13:00,0.03725297,0,5.468736,0
2005/3/4 13:15,0,0,0,0
2005/3/4 13:30,0,0,0,0
2005/3/4 13:45,0,0,0,0
2005/3/4 14:00,0,0,0,0
2005/3/4 14:15,0,0,0,0
2005/3/4 14:30,0,0,0,0
2005/3/4 14:45,0,0,0,0
2005/3/4 15:00,0,0,0,0
2005/3/4 15:15,0,0,0,0
2005/3/4 15:30,0.063190627,0,9.276384,0
2005/3/4 15:45,0.073859837,0,10.842624,0
2005/3/4 16:00,0.073864087,0,10.843248,0
2005/3/4 16:15,0.083003052,0,12.184848,0
2005/3/4 16:30,0,0,0,0
2005/3/4 16:45,0.000102016,0,0.014976,0
2005/3/4 17:00,0.073388011,0,10.77336,0
2005/3/4 17:15,0.073864087,0,10.843248,0
2005/3/4 17:30,0.073864087,0,10.843248,0
2005/3/4 17:45,0.073868338,0,10.843872,0
2005/3/4 18:00,0.073868338,0,10.843872,0
2005/3/4 18:15,0.073864087,0,10.843248,0
2005/3/4 18:30,0.073868338,0,10.843872,0
2005/3/4 18:45,0.073868338,0,10.843872,0
2005/3/4 19:00,0.073868338,0,10.843872,0
2005/3/4 19:15,0.073868338,0,10.843872,0
2005/3/4 19:30,0.072707902,0,10.67352,0
2005/3/4 19:45,0.073868338,0,10.843872,0
2005/3/4 20:00,0.073115967,0,10.733424,0
2005/3/4 20:15,0.029423215,0,4.319328,0
2005/3/4 20:30,0.046748992,0,6.862752,0
2005/3/4 20:45,0.073868338,0,10.843872,0
2005/3/4 21:00,0.073868338,0,10.843872,0
2005/3/4 21:15,0.073868338,0,10.843872,0
2005/3/4 21:30,0.073868338,0,10.843872,0
2005/3/4 21:45,0.073868338,0,10.843872,0
2005/3/4 22:00,0.07326049,0,10.75464,0
2005/3/4 22:15,0.073859837,0,10.842624,0
2005/3/4 22:30,0.072312589,0,10.615488,0
2005/3/4 22:45,0.047624632,0,6.991296,0
2005/3/4 23:00,0,0,0,0
2005/3/4 23:15,0,0,0,0
2005/3/4 23:30,0,0,0,0
2005/3/4 23:45,0,0,0,0
2005/3/5 0:00,0,0,0,0
2005/3/5 0:15,0,0,0,0
2005/3/5 0:30,0,0,0,0
2005/3/5 0:45,0,0,0,0
2005/3/5 1:00,0,0,0,0
2005/3/5 1:15,0,0,0,0
2005/3/5 1:30,0,0,0,0
2005/3/5 1:45,0,0,0,0
2005/3/5 2:00,0,0,0,0
2005/3/5 2:15,0,0,0,0
2005/3/5 2:30,0,0,0,0
2005/3/5 2:45,0,0,0,0
2005/3/5 3:00,0,0,0,0
2005/3/5 3:15,0,0,0,0
2005/3/5 3:30,0,0,0,0
2005/3/5 3:45,0,0,0,0
2005/3/5 4:00,0,0,0,0
2005/3/5 4:15,0,0,0,0
2005/3/5 4:30,0,0,0,0
2005/3/5 4:45,0,0,0,0
2005/3/5 5:00,0,0,0,0
2005/3/5 5:15,0,0,0,0
2005/3/5 5:30,0.018277929,0,2.6832,0
2005/3/5 5:45,0.073859837,0,10.842624,0
2005/3/5 6:00,0.073864087,0,10.843248,0
2005/3/5 6:15,0.073864087,0,10.843248,0
2005/3/5 6:30,0.073868338,0,10.843872,0
2005/3/5 6:45,0.073868338,0,10.843872,0
2005/3/5 7:00,0.073779074,0,10.830768,0
2005/3/5 7:15,0.073328501,0,10.764624,0
2005/3/5 7:30,0.073400763,0,10.775232,0
2005/3/5 7:45,0.067169264,0,9.860448,0
2005/3/5 8:00,0.07325624,0,10.754016,0
2005/3/5 8:15,0.070625068,0,10.36776,0
2005/3/5 8:30,0.072916185,0,10.704096,0
2005/3/5 8:45,0.073740817,0,10.825152,0
2005/3/5 9:00,0.071500708,0,10.496304,0
2005/3/5 9:15,0.063352153,0,9.300096,0
2005/3/5 9:30,0.068963052,0,10.123776,0
2005/3/5 9:45,0.050740381,0,7.448688,0
2005/3/5 10:00,0.063751717,0,9.358752,0
2005/3/5 10:15,0.073592044,0,10.803312,0
2005/3/5 10:30,0.073617548,0,10.807056,0
2005/3/5 10:45,0.071802507,0,10.540608,0
2005/3/5 11:00,0.073868338,0,10.843872,0
2005/3/5 11:15,0.062608283,0,9.190896,0
2005/3/5 11:30,0.015706267,0,2.30568,0
2005/3/5 11:45,0.015719019,0,2.307552,0
2005/3/5 12:00,0.015702016,0,2.305056,0
2005/3/5 12:15,0.034481526,0,5.061888,0
2005/3/5 12:30,0.06495891,0,9.535968,0
2005/3/5 12:45,0.059484033,0,8.732256,0
2005/3/5 13:00,0.068180926,0,10.00896,0
2005/3/5 13:15,0.058234332,0,8.5488,0
2005/3/5 13:30,0.052568174,0,7.717008,0
2005/3/5 13:45,0.042553569,0,6.246864,0
2005/3/5 14:00,0.044734169,0,6.566976,0
2005/3/5 14:15,0.041316621,0,6.06528,0
2005/3/5 14:30,0.056117493,0,8.238048,0
2005/3/5 14:45,0.043526975,0,6.38976,0
2005/3/5 15:00,0.037261471,0,5.469984,0
2005/3/5 15:15,0.03625406,0,5.322096,0
2005/3/5 15:30,0.035076621,0,5.149248,0
2005/3/5 15:45,0.057609482,0,8.457072,0
2005/3/5 16:00,0.062123706,0,9.11976,0
2005/3/5 16:15,0.055318365,0,8.120736,0
2005/3/5 16:30,0.067760109,0,9.947184,0
2005/3/5 16:45,0.062446757,0,9.167184,0
2005/3/5 17:00,0.067730354,0,9.942816,0
2005/3/5 17:15,0.06389624,0,9.379968,0
2005/3/5 17:30,0.066786703,0,9.804288,0
2005/3/5 17:45,0.065315967,0,9.588384,0
2005/3/5 18:00,0.029112916,0,4.273776,0
2005/3/5 18:15,0.01372545,0,2.014896,0
2005/3/5 18:30,0,0,0,0
2005/3/5 18:45,0.004688501,0,0.688272,0
2005/3/5 19:00,0,0,0,0
2005/3/5 19:15,0,0,0,0
2005/3/5 19:30,0,0,0,0
2005/3/5 19:45,0,0,0,0
2005/3/5 20:00,0,0,0,0
2005/3/5 20:15,0,0,0,0
2005/3/5 20:30,0,0,0,0
2005/3/5 20:45,0,0,0,0
2005/3/5 21:00,0,0,0,0
2005/3/5 21:15,0.001330463,0,0.195312,0
2005/3/5 21:30,0,0,0,0
2005/3/5 21:45,0,0,0,0
2005/3/5 22:00,0,0,0,0
2005/3/5 22:15,0,0,0,0
2005/3/5 22:30,0,0,0,0
2005/3/5 22:45,0,0,0,0
2005/3/5 23:00,0,0,0,0
2005/3/5 23:15,0,0,0,0
2005/3/5 23:30,0,0,0,0
2005/3/5 23:45,0,0,0,0
2005/3/6 0:00,0,0,0,0
2005/3/6 0:15,0,0,0,0
2005/3/6 0:30,0,0,0,0
2005/3/6 0:45,0,0,0,0
2005/3/6 1:00,0,0,0,0
2005/3/6 1:15,0,0,0,0
2005/3/6 1:30,0,0,0,0
2005/3/6 1:45,0,0,0,0
2005/3/6 2:00,0,0,0,0
2005/3/6 2:15,0,0,0,0
2005/3/6 2:30,0,0,0,0
2005/3/6 2:45,0,0,0,0
2005/3/6 3:00,0,0,0,0
2005/3/6 3:15,0,0,0,0
2005/3/6 3:30,0,0,0,0
2005/3/6 3:45,0,0,0,0
2005/3/6 4:00,0,0,0,0
2005/3/6 4:15,0,0,0,0
2005/3/6 4:30,0,0,0,0
2005/3/6 4:45,0,0,0,0
2005/3/6 5:00,0,0,0,0
2005/3/6 5:15,0,0,0,0
2005/3/6 5:30,0,0,0,0
2005/3/6 5:45,0,0,0,0
2005/3/6 6:00,0,0,0,0
2005/3/6 6:15,0,0,0,0
2005/3/6 6:30,0,0,0,0
2005/3/6 6:45,0,0,0,0
2005/3/6 7:00,0,0,0,0
2005/3/6 7:15,0,0,0,0
2005/3/6 7:30,0,0,0,0
2005/3/6 7:45,0,0,0,0
2005/3/6 8:00,0,0,0,0
2005/3/6 8:15,0,0,0,0
2005/3/6 8:30,0,0,0,0
2005/3/6 8:45,0,0,0,0
2005/3/6 9:00,0,0,0,0
2005/3/6 9:15,0,0,0,0
2005/3/6 9:30,0,0,0,0
2005/3/6 9:45,0,0,0,0
2005/3/6 10:00,0,0,0,0
2005/3/6 10:15,0,0,0,0
2005/3/6 10:30,0,0.666666667,0,0.666666667
2005/3/6 10:45,0,0.666666667,0,0.666666667
2005/3/6 11:00,0,0,0,0
2005/3/6 11:15,0,0,0,0
2005/3/6 11:30,0,0,0,0
2005/3/6 11:45,0,0,0,0
2005/3/6 12:00,0,0,0,0
2005/3/6 12:15,0,0,0,0
2005/3/6 12:30,0,0,0,0
2005/3/6 12:45,0,0,0,0
2005/3/6 13:00,0,0,0,0
2005/3/6 13:15,0,0,0,0
2005/3/6 13:30,0,0,0,0
2005/3/6 13:45,0,0,0,0
2005/3/6 14:00,0,0,0,0
2005/3/6 14:15,0,0,0,0
2005/3/6 14:30,0,0,0,0
2005/3/6 14:45,0,0,0,0
2005/3/6 15:00,0,0,0,0
2005/3/6 15:15,0,0,0,0
2005/3/6 15:30,0,0,0,0
2005/3/6 15:45,0,0,0,0
2005/3/6 16:00,0,0,0,0
2005/3/6 16:15,0,0,0,0
2005/3/6 16:30,0,0,0,0
2005/3/6 16:45,0,0,0,0
2005/3/6 17:00,0,0,0,0
2005/3/6 17:15,0,0,0,0
2005/3/6 17:30,0,0,0,0
2005/3/6 17:45,0,0,0,0
2005/3/6 18:00,0,0,0,0
2005/3/6 18:15,0,0,0,0
2005/3/6 18:30,0,0,0,0
2005/3/6 18:45,0,0,0,0
2005/3/6 19:00,0,0,0,0
2005/3/6 19:15,0,0,0,0
2005/3/6 19:30,0,0,0,0
2005/3/6 19:45,0,0,0,0
2005/3/6 20:00,0,0,0,0
2005/3/6 20:15,0,0,0,0
2005/3/6 20:30,0,0,0,0
2005/3/6 20:45,0,0,0,0
2005/3/6 21:00,0,0,0,0
2005/3/6 21:15,0,0,0,0
2005/3/6 21:30,0,0,0,0
2005/3/6 21:45,0,0,0,0
2005/3/6 22:00,0,0,0,0
2005/3/6 22:15,0,0,0,0
2005/3/6 22:30,0,0,0,0
2005/3/6 22:45,0,0,0,0
2005/3/6 23:00,0,0,0,0
2005/3/6 23:15,0,0,0,0
2005/3/6 23:30,0,0,0,0
2005/3/6 23:45,0,0,0,0
2005/3/7 0:00,0,0,0,0
2005/3/7 0:15,0,0,0,0
2005/3/7 0:30,0,0,0,0
2005/3/7 0:45,0,0,0,0
2005/3/7 1:00,0,0,0,0
2005/3/7 1:15,0,0,0,0
2005/3/7 1:30,0,0,0,0
2005/3/7 1:45,0,0,0,0
2005/3/7 2:00,0,0,0,0
2005/3/7 2:15,0,0,0,0
2005/3/7 2:30,0,0,0,0
2005/3/7 2:45,0,0,0,0
2005/3/7 3:00,0,0,0,0
2005/3/7 3:15,0,0,0,0
2005/3/7 3:30,0,0,0,0
2005/3/7 3:45,0,0,0,0
2005/3/7 4:00,0,0,0,0
2005/3/7 4:15,0,0,0,0
2005/3/7 4:30,0,0,0,0
2005/3/7 4:45,0,0,0,0
2005/3/7 5:00,0,0,0,0
2005/3/7 5:15,0,0,0,0
2005/3/7 5:30,0,0,0,0
2005/3/7 5:45,0,0,0,0
2005/3/7 6:00,0,0,0,0
2005/3/7 6:15,0,0,0,0
2005/3/7 6:30,0,0,0,0
2005/3/7 6:45,0,0,0,0
2005/3/7 7:00,0,0,0,0
2005/3/7 7:15,0,0,0,0
2005/3/7 7:30,0,0,0,0
2005/3/7 7:45,0,0,0,0
2005/3/7 8:00,0,0,0,0
2005/3/7 8:15,0,0,0,0
2005/3/7 8:30,0,0,0,0
2005/3/7 8:45,0,0,0,0
2005/3/7 9:00,0,0,0,0
2005/3/7 9:15,0,0,0,0
2005/3/7 9:30,0,0,0,0
2005/3/7 9:45,0,0,0,0
2005/3/7 10:00,0,0,0,0
2005/3/7 10:15,0,0,0,0
2005/3/7 10:30,0,0,0,0
2005/3/7 10:45,0,0,0,0
2005/3/7 11:00,0,0,0,0
2005/3/7 11:15,0,0,0,0
2005/3/7 11:30,0,0,0,0
2005/3/7 11:45,0,0,0,0
2005/3/7 12:00,0,0,0,0
2005/3/7 12:15,0,0,0,0
2005/3/7 12:30,0,0,0,0
2005/3/7 12:45,0,0,0,0
2005/3/7 13:00,0,0,0,0
2005/3/7 13:15,0,0,0,0
2005/3/7 13:30,0,0,0,0
2005/3/7 13:45,0,0,0,0
2005/3/7 14:00,0,0,0,0
2005/3/7 14:15,0,0,0,0
2005/3/7 14:30,0,0,0,0
2005/3/7 14:45,0,0,0,0
2005/3/7 15:00,0,0,0,0
2005/3/7 15:15,0,0,0,0
2005/3/7 15:30,0,0,0,0
2005/3/7 15:45,0,0,0,0
2005/3/7 16:00,0,0,0,0
2005/3/7 16:15,0,0,0,0
2005/3/7 16:30,0,0,0,0
2005/3/7 16:45,0,0,0,0
2005/3/7 17:00,0,0,0,0
2005/3/7 17:15,0,0,0,0
2005/3/7 17:30,0,0,0,0
2005/3/7 17:45,0,0,0,0
2005/3/7 18:00,0,0,0,0
2005/3/7 18:15,0,0,0,0
2005/3/7 18:30,0,0,0,0
2005/3/7 18:45,0,0,0,0
2005/3/7 19:00,0,0,0,0
2005/3/7 19:15,0,0,0,0
2005/3/7 19:30,0,0,0,0
2005/3/7 19:45,0,0,0,0
2005/3/7 20:00,0,0,0,0
2005/3/7 20:15,0,0,0,0
2005/3/7 20:30,0,0,0,0
2005/3/7 20:45,0,0,0,0
2005/3/7 21:00,0,0,0,0
2005/3/7 21:15,0,0,0,0
2005/3/7 21:30,0,0,0,0
2005/3/7 21:45,0,0,0,0
2005/3/7 22:00,0,0,0,0
2005/3/7 22:15,0,0,0,0
2005/3/7 22:30,0,0,0,0
2005/3/7 22:45,0,0,0,0
2005/3/7 23:00,0,0,0,0
2005/3/7 23:15,0,0,0,0
2005/3/7 23:30,0,0,0,0
2005/3/7 23:45,0,0,0,0
2005/3/8 0:00,0,0,0,0
2005/3/8 0:15,0,0,0,0
2005/3/8 0:30,0,0,0,0
2005/3/8 0:45,0,0,0,0
2005/3/8 1:00,0,0,0,0
2005/3/8 1:15,0,0,0,0
2005/3/8 1:30,0,0,0,0
2005/3/8 1:45,0,0,0,0
2005/3/8 2:00,0,0,0,0
2005/3/8 2:15,0,0,0,0
2005/3/8 2:30,0,0,0,0
2005/3/8 2:45,0,0,0,0
2005/3/8 3:00,0,0,0,0
2005/3/8 3:15,0,0,0,0
2005/3/8 3:30,0,0,0,0
2005/3/8 3:45,0,0,0,0
2005/3/8 4:00,0,0,0,0
2005/3/8 4:15,0,0,0,0
2005/3/8 4:30,0,0,0,0
2005/3/8 4:45,0,0,0,0
2005/3/8 5:00,0,0,0,0
2005/3/8 5:15,0,0,0,0
2005/3/8 5:30,0,0,0,0
2005/3/8 5:45,0,0,0,0
2005/3/8 6:00,0,0,0,0
2005/3/8 6:15,0,0,0,0
2005/3/8 6:30,0,0,0,0
2005/3/8 6:45,0,0,0,0
2005/3/8 7:00,0,0,0,0
2005/3/8 7:15,0,0,0,0
2005/3/8 7:30,0,0,0,0
2005/3/8 7:45,0,0,0,0
2005/3/8 8:00,0,0,0,0
2005/3/8 8:15,0,0,0,0
2005/3/8 8:30,0,0,0,0
2005/3/8 8:45,0,0,0,0
2005/3/8 9:00,0,0,0,0
2005/3/8 9:15,0,0,0,0
2005/3/8 9:30,0,0,0,0
2005/3/8 9:45,0,0,0,0
2005/3/8 10:00,0,0,0,0
2005/3/8 10:15,0,0,0,0
2005/3/8 10:30,0,0,0,0
2005/3/8 10:45,0,0,0,0
2005/3/8 11:00,0,0,0,0
2005/3/8 11:15,0,0,0,0
2005/3/8 11:30,0,0,0,0
2005/3/8 11:45,0,0,0,0
2005/3/8 12:00,0,0,0,0
2005/3/8 12:15,0,0,0,0
2005/3/8 12:30,0,0,0,0
2005/3/8 12:45,0,0,0,0
2005/3/8 13:00,0,0,0,0
2005/3/8 13:15,0,0,0,0
2005/3/8 13:30,0,0,0,0
2005/3/8 13:45,0,0,0,0
2005/3/8 14:00,0,0,0,0
2005/3/8 14:15,0,0,0,0
2005/3/8 14:30,0,0,0,0
2005/3/8 14:45,0,0,0,0
2005/3/8 15:00,0,0,0,0
2005/3/8 15:15,0,0,0,0
2005/3/8 15:30,0,0,0,0
2005/3/8 15:45,0,0,0,0
2005/3/8 16:00,0,0,0,0
2005/3/8 16:15,0,0,0,0
2005/3/8 16:30,0,0,0,0
2005/3/8 16:45,0,0,0,0
2005/3/8 17:00,0,0,0,0
2005/3/8 17:15,0,0,0,0
2005/3/8 17:30,0,0,0,0
2005/3/8 17:45,0,0,0,0
2005/3/8 18:00,0,0,0,0
2005/3/8 18:15,0,0,0,0
2005/3/8 18:30,0,0,0,0
2005/3/8 18:45,0,0,0,0
2005/3/8 19:00,0,0,0,0
2005/3/8 19:15,0,0,0,0
2005/3/8 19:30,0,0,0,0
2005/3/8 19:45,0,0,0,0
2005/3/8 20:00,0,0,0,0
2005/3/8 20:15,0,0,0,0
2005/3/8 20:30,0,0,0,0
2005/3/8 20:45,0,0,0,0
2005/3/8 21:00,0,0,0,0
2005/3/8 21:15,0,0,0,0
2005/3/8 21:30,0,0,0,0
2005/3/8 21:45,0,0,0,0
2005/3/8 22:00,0,0,0,0
2005/3/8 22:15,0,0,0,0
2005/3/8 22:30,0,0,0,0
2005/3/8 22:45,0,0,0,0
2005/3/8 23:00,0,0,0,0
2005/3/8 23:15,0,0,0,0
2005/3/8 23:30,0,0,0,0
2005/3/8 23:45,0,0,0,0
2005/3/9 0:00,0,0,0,0
2005/3/9 0:15,0,0,0,0
2005/3/9 0:30,0,0,0,0
2005/3/9 0:45,0,0,0,0
2005/3/9 1:00,0,0,0,0
2005/3/9 1:15,0,0,0,0
2005/3/9 1:30,0,0,0,0
2005/3/9 1:45,0,0,0,0
2005/3/9 2:00,0,0,0,0
2005/3/9 2:15,0,0,0,0
2005/3/9 2:30,0,0,0,0
2005/3/9 2:45,0,0,0,0
2005/3/9 3:00,0,0,0,0
2005/3/9 3:15,0,0,0,0
2005/3/9 3:30,0,0,0,0
2005/3/9 3:45,0,0,0,0
2005/3/9 4:00,0,0,0,0
2005/3/9 4:15,0,0,0,0
2005/3/9 4:30,0,0,0,0
2005/3/9 4:45,0,0,0,0
2005/3/9 5:00,0,0,0,0
2005/3/9 5:15,0,0,0,0
2005/3/9 5:30,0,0,0,0
2005/3/9 5:45,0,0,0,0
2005/3/9 6:00,0,0,0,0
2005/3/9 6:15,0,0,0,0
2005/3/9 6:30,0,0,0,0
2005/3/9 6:45,0,0,0,0
2005/3/9 7:00,0,0,0,0
2005/3/9 7:15,0,0,0,0
2005/3/9 7:30,0,0,0,0
2005/3/9 7:45,0,0,0,0
2005/3/9 8:00,0,0,0,0
2005/3/9 8:15,0,0,0,0
2005/3/9 8:30,0,0,0,0
2005/3/9 8:45,0,0,0,0
2005/3/9 9:00,0,0,0,0
2005/3/9 9:15,0,0,0,0
2005/3/9 9:30,0,0,0,0
2005/3/9 9:45,0,0,0,0
2005/3/9 10:00,0,0,0,0
2005/3/9 10:15,0,0,0,0
2005/3/9 10:30,0,0,0,0
2005/3/9 10:45,0,0,0,0
2005/3/9 11:00,0,0,0,0
2005/3/9 11:15,0,0,0,0
2005/3/9 11:30,0,0,0,0
2005/3/9 11:45,0,0,0,0
2005/3/9 12:00,0,0,0,0
2005/3/9 12:15,0,0,0,0
2005/3/9 12:30,0,0,0,0
2005/3/9 12:45,0,0,0,0